TimeEST,TemperatureF,Dew PointF,Humidity,Sea Level PressureIn,VisibilityMPH,Wind Direction,Wind SpeedMPH,Gust SpeedMPH,PrecipitationIn,Events,Conditions,WindDirDegrees,DateUTC
12:52 AM,21.9,12.9,68,30.18,10.0,Calm,Calm,-,N/A,,Overcast,0,2013-11-26 05:52:00
1:52 AM,21.9,15.1,75,30.18,10.0,Calm,Calm,-,N/A,,Overcast,0,2013-11-26 06:52:00
2:52 AM,23.0,14.0,68,30.18,10.0,Calm,Calm,-,N/A,,Overcast,0,2013-11-26 07:52:00
3:52 AM,23.0,16.0,74,30.19,10.0,Calm,Calm,-,0.00,,Overcast,0,2013-11-26 08:52:00
4:52 AM,27.0,17.1,66,30.19,10.0,SSW,6.9,-,N/A,,Overcast,210,2013-11-26 09:52:00
5:52 AM,28.0,19.0,69,30.21,10.0,WSW,6.9,-,N/A,,Overcast,240,2013-11-26 10:52:00
6:52 AM,28.0,19.0,69,30.21,10.0,Variable,3.5,-,N/A,,Overcast,0,2013-11-26 11:52:00
7:52 AM,28.0,19.9,72,30.24,10.0,Calm,Calm,-,N/A,,Overcast,0,2013-11-26 12:52:00
8:52 AM,30.0,19.0,64,30.26,10.0,SW,4.6,-,N/A,,Overcast,230,2013-11-26 13:52:00
9:52 AM,30.9,19.9,64,30.27,10.0,SW,6.9,-,N/A,,Overcast,230,2013-11-26 14:52:00
10:52 AM,32.0,21.0,64,30.25,10.0,Calm,Calm,-,N/A,,Overcast,0,2013-11-26 15:52:00
11:52 AM,33.1,21.0,61,30.22,10.0,Variable,3.5,-,N/A,,Overcast,0,2013-11-26 16:52:00
12:52 PM,33.1,21.9,64,30.24,10.0,West,4.6,-,N/A,,Overcast,260,2013-11-26 17:52:00
1:52 PM,33.1,21.9,64,30.24,10.0,WNW,4.6,-,N/A,,Overcast,300,2013-11-26 18:52:00
2:52 PM,33.1,21.9,64,30.24,10.0,Calm,Calm,-,N/A,,Overcast,0,2013-11-26 19:52:00
3:52 PM,33.1,21.9,64,30.23,10.0,Calm,Calm,-,N/A,,Overcast,0,2013-11-26 20:52:00
4:52 PM,32.0,23.0,69,30.24,3.0,Calm,Calm,-,0.00,Snow,Light Snow,0,2013-11-26 21:52:00
4:56 PM,32.0,24.1,73,30.19,2.0,WSW,3.5,-,0.00,Snow,Light Snow,250,2013-11-26 21:56:00
5:06 PM,30.9,25.0,79,30.18,1.8,Calm,Calm,-,0.00,Snow,Light Snow,0,2013-11-26 22:06:00
5:17 PM,30.9,26.1,82,30.18,2.0,Calm,Calm,-,0.00,Snow,Light Snow,0,2013-11-26 22:17:00
5:30 PM,30.9,26.1,82,30.17,1.8,Calm,Calm,-,0.00,Snow,Light Snow,0,2013-11-26 22:30:00
5:52 PM,30.0,26.1,85,30.21,1.2,Calm,Calm,-,0.00,Snow,Light Snow,0,2013-11-26 22:52:00
6:26 PM,30.0,27.0,88,30.16,2.0,Calm,Calm,-,0.01,Snow,Light Snow,0,2013-11-26 23:26:00
6:49 PM,30.2,26.6,86,30.16,3.0,WNW,3.5,-,0.01,Snow,Light Snow,300,2013-11-26 23:49:00
6:52 PM,30.0,27.0,88,30.21,3.0,Calm,Calm,-,0.01,Snow,Light Snow,0,2013-11-26 23:52:00
7:00 PM,30.0,27.0,88,30.16,2.5,Calm,Calm,-,0.00,Snow,Light Snow,0,2013-11-27 00:00:00
7:11 PM,30.0,27.0,88,30.16,1.5,Calm,Calm,-,0.00,Snow,Light Snow,0,2013-11-27 00:11:00
7:52 PM,30.0,27.0,88,30.20,1.2,Calm,Calm,-,0.01,Snow,Light Snow,0,2013-11-27 00:52:00
8:20 PM,30.0,27.0,88,30.13,1.0,Calm,Calm,-,0.01,Snow,Light Snow,0,2013-11-27 01:20:00
8:52 PM,30.9,27.0,85,30.15,1.2,Calm,Calm,-,0.02,Snow,Light Snow,0,2013-11-27 01:52:00
9:13 PM,30.9,27.0,85,30.10,1.2,Calm,Calm,-,0.00,Snow,Light Snow,0,2013-11-27 02:13:00
9:52 PM,30.9,28.0,89,30.12,1.5,Calm,Calm,-,0.02,Snow,Light Snow,0,2013-11-27 02:52:00
10:08 PM,30.9,28.0,89,30.06,1.5,Calm,Calm,-,0.00,Snow,Light Snow,0,2013-11-27 03:08:00
10:36 PM,30.9,28.0,89,30.05,2.0,WNW,3.5,-,0.00,Snow,Light Snow,300,2013-11-27 03:36:00
10:52 PM,30.9,28.0,89,30.08,2.0,West,3.5,-,0.00,Snow,Light Snow,280,2013-11-27 03:52:00
11:22 PM,30.9,28.0,89,30.02,1.5,WNW,3.5,-,0.01,Snow,Light Snow,300,2013-11-27 04:22:00
11:52 PM,30.9,28.0,89,30.05,2.5,West,3.5,-,0.03,Snow,Light Snow,280,2013-11-27 04:52:00